Погода в Бухаре

Погода в Бухаре : погода сейчас, прогноз погоды и архив. Всё, что Вы хотите узнать о погоде в Бухаре!

Поиск расширенной информации на нашем сайте:

Другие новости

Новости СМИ2

Главная страница сайта

Новости сайта

03.07.2017

Напоминаем, что на нашем специализированном сайте Метеоцентр.Азия вы можете получить высокодетализированные автоматические прогнозы погоды по пунктам России, СНГ и мира в авиационном формате (включающие направление и скорость ветра, видимость, явления погоды, количество и форму облачности, нижнюю и верхнюю границу облачности).

Рекомендуем: купить сейф для денег

Погода в Бухаре - сегодня

Время (UTC), дата Ветер
(°,м/с) 
Видим.   Явления Облачность Т
(°С)
Тd
(°С)
f(%) Тe
(°С)
Pmin
(гПа)
dP
(гПа)
Po
(мм)
O2
(г/м3)
Тmin Tmax R s Состояние
почвы
09 13.01.18 290 (З) 4000 м  мгла  10/0 верхняя 
[Ci fib]
+6.9 -0.7 58 +6  1019.1  0.4  744  292           
12 13.01.18 320 (СЗ) 4000 м  мгла  4/0 верхняя 
[Ci fib]
+6.7 -1.3 57 +6  1020.7  1.4  745  293           
15 13.01.18 340 (С) 4000 м  мгла  ясно 
+2.4 -3.2 66 +1  1023.6  2.4  746  299    +7.6       
18 13.01.18 тихо ()   4000 м  мгла  ясно 
+0.8 -4.5 68 +1  1024.8  747  301    +7.6       
21 13.01.18 320 (СЗ) 10 км    ясно 
-1 -5.7 70 -3  1025.8  0.8  748  303           
00 14.01.18 тихо ()   10 км    4/0 средняя 
[Ac trans]
-2.2 -4.9 82 -2  1026.9  0.9  749  305           
03 14.01.18 тихо ()   10 км    4/0 средняя 
[Ac trans]
-2.4 -5 82 -2  1028.2  1.3  749  305           
06 14.01.18 180 (Ю) 10 км    8/0 верхняя 
[Ci fib]
+1.5 -4 67 +1  1029.1  1.3  750  301  -2.7         
09 14.01.18 200 (Ю) 10 км    ясно 
+6.5 -3.7 48 +6  1027.2  -1.3  749  295           
12 14.01.18 250 (З) 10 км    5/0 верхняя 
[Ci fib]
+6.7 -4.2 46 +7  1026.6  -0.6  749  295           
15 14.01.18 320 (СЗ) 10 км    3/0 верхняя 
[Ci fib]
+3 -4.2 59 +2  1027.1  0.2  749  299    +7.3       
18 14.01.18 тихо ()   4000 м  дымка  6/0 верхняя 
[Ci fib]
+0.3 -4.1 72 1027.6  0.2  749  302    +7.3       
21 14.01.18 360 (С) 4000 м  дымка  ясно 
-1.8 -4.8 80 -4  1026.4  -1.5  748  304           
00 15.01.18 360 (С) 10 км    ясно 
-1.2 -4.1 81 -4  1026.1  -0.2  748  303           
03 15.01.18 360 (С) 10 км    5/0 верхняя 
[Ci fib]
-2.9 -5.6 82 -6  1025.9  -0.4  748  305           
06 15.01.18 360 (С) 10 км    10/0 верхняя 
[Ci fib]
+0.1 -4.7 70 -3  1025.1  -0.4  747  302  -3.2         
09 15.01.18 360 (С) 10 км    10/0 верхняя 
[Ci fib]
+2.2 -4.6 61 -2  1022.1  -2.7  745  298           
12 15.01.18 360 (С) 10 км    10/0 средняя 
[Ac trans]
+0.5 -5.3 65 -4  1021.4  -0.9  745  300           
15 15.01.18 360 (С) 10 км    10/0 средняя 
[Ac trans]
-1.1 -6.2 68 -6  1021.8  0.2  745  302    +2.4       
18 15.01.18 360 (С) 10 км    10/0 средняя 
[Ac trans]
-2.5 -6.5 74 -7  1022.7  0.8  746  304    +2.4       
21 15.01.18 340 (С) 10 км    10/0 средняя 
[Ac trans]
-3.1 -7.3 73 -8  1024.3  1.4  747  305           
00 16.01.18 340 (С) 10 км    8/3 1500 м кучево-дожд., средняя 
[Cb calv|Ac trans]
-4.1 -7.5 77 -9  1025.9  1.5  748  307           
03 16.01.18 340 (С) 10 км  слаб. ливневой снег  10/10 720 м кучево-дожд. 
[Cb calv]
-4.5 -7.2 81 -8  1026.9  0.9  748  307      0.0     
06 16.01.18 360 (С) 10 км  {ливн. осадки}  10/10 300 м 
[Sc]
-3.7 -7 78 -7  1028.7  1.9  750  307  -4.6    0.9     
09 16.01.18 020 (С) 10 км    10/10 480 м 
[Sc]
-1.4 -5.4 74 -2  1027.5  -1  749  304           
Время (UTC), дата Ветер
(°,м/с) 
Видим.   Явления Облачность Т
(°С)
Тd
(°С)
f(%) Тe
(°С)
Pmin
(гПа)
dP
(гПа)
Po
(мм)
O2
(г/м3)
Тmin Tmax R s Состояние
почвы

Для получения пояснительной информации подведите курсор к названию столбца.

ПОГОДА в Бухаре - архив

Всё, что Вы хотите узнать о погоде в Бухаре - удобно и подробно!

Выберите нужную дату (начиная с 1 января 2015* года) и нажмите кнопку "Найти".
Будут отображены архивные сводки погоды по пункту Бухара, начиная с указанной даты.


Отображать данные в формате CSV (для использования в таблицах Excel)


Внимание! Наш архив погоды предназначен исключительно для личного некоммерческого использования в познавательных целях. Если Вам необходимы официальные справки о состоянии погоды (для производственных, юридических, коммерческих и т.п. целей), обращайтесь в органы Росгидромета.

*Примечание: данная дата относится к архиву по метеостанциям СССР (Россия, СНГ, Балтия).
Архив по метеостанциям Зарубежной Европы и Азии (кроме Китая) хранится 10 дней, по другим регионам земного шара (Китай, Африка, Америка, Австралия, Океания) - 1 день.

Бухара - район местоположения метеостанции


Название, широта, долгота, высота метеостанции:
Бухара 39.7°ш. 64.6°д. 226 м над ур. моря [Узбекистан]

Дополнительная информация

В oтличие oт бoльшинства пoгoдных сайтoв мы публикуем пoдрoбную метеoинфoрмацию в детальнoм прoфессиoнальнoм фoрмате.

Характеристики температуры и влажнoсти вoздуха измеряются на высoте 2 м в тени вдали oт зданий и деревьев.
Скoрoсть ветра измеряется на высoте 10 м (на урoвне рoста челoвека скoрoсть ветра ниже в 1.5-2 раза). Если метеoстанция нахoдится в гoрoде или в лесу, тo скoрoсть ветра занижена на 2-4 м/с пo сравнению с oткрытым местoм. Скoрoсть ветра над акватoриями крупных рек и oзёр, а также на вершинах хoлмoв на 2-5 м/с выше, чем в oбычных услoвиях.
Атмoсфернoе давление в разных тoчках местнoсти мoжет значительнo oтличаться oт давления на метеoстанции, в зависимoсти oт услoвий рельефа (при пoдъёме на 10 м давление пoнижается примернo на 1 мм рт.ст.).